KLM36A EPKK-EHAM

Flight info

Callsign KLM36A
Flight time 1h 34m
Altitude 34000
Route OMFOL1J OMFOL T738 EKSEK DCT NAROX DCT ZUCKA DCT NORKU NORKU2A
Aircraft E195/M-SDE3GILORVW/S

Departure

Time 2026-05-04 11:29
Airport Kraków John Paul II International Airport (EPKK)

Arrival

Time 2026-05-04 13:03
Airport Amsterdam Airport Schiphol (EHAM)
Time Latitude Longitude Altitude Speed Heading
2026-05-04 11:16 50.07474 19.80078 801 ft 0 kts 167°
2026-05-04 11:27 50.07985 19.80279 802 ft 12 kts 328°
2026-05-04 11:28 50.08005 19.80165 802 ft 2 kts 258°
2026-05-04 11:28 50.08004 19.80152 802 ft 6 kts 258°
2026-05-04 11:28 50.07936 19.79657 802 ft 86 kts 257°
2026-05-04 11:28 50.07759 19.78402 802 ft 152 kts 258°
2026-05-04 11:29 50.07500 19.76553 1022 ft 186 kts 258°
2026-05-04 11:29 50.07198 19.74527 1620 ft 202 kts 257°
2026-05-04 11:29 50.06849 19.72365 2381 ft 212 kts 256°
2026-05-04 11:29 50.06476 19.70072 3018 ft 230 kts 254°
2026-05-04 11:31 50.03836 19.50579 8557 ft 273 kts 256°
2026-05-04 11:33 50.05898 19.29489 12980 ft 322 kts 290°
2026-05-04 11:33 50.06784 19.26299 13686 ft 324 kts 290°
2026-05-04 11:33 50.07673 19.23091 14421 ft 326 kts 290°
2026-05-04 11:34 50.08557 19.19897 15125 ft 328 kts 290°
2026-05-04 11:34 50.09467 19.16605 15830 ft 331 kts 290°
2026-05-04 11:34 50.10370 19.13333 16525 ft 333 kts 291°
2026-05-04 11:34 50.11280 19.10031 17220 ft 335 kts 291°
2026-05-04 11:35 50.12202 19.06679 17900 ft 338 kts 291°
2026-05-04 11:35 50.13126 19.03319 18569 ft 341 kts 291°
2026-05-04 11:35 50.14047 18.99962 19204 ft 344 kts 291°
2026-05-04 11:35 50.14988 18.96524 19822 ft 348 kts 291°
2026-05-04 11:36 50.15939 18.93050 20437 ft 352 kts 291°
2026-05-04 11:36 50.16899 18.89536 21052 ft 355 kts 291°
2026-05-04 11:36 50.17867 18.85988 21658 ft 358 kts 291°
2026-05-04 11:36 50.18842 18.82408 22250 ft 362 kts 292°
2026-05-04 11:37 50.19821 18.78806 22810 ft 366 kts 292°
2026-05-04 11:37 50.20817 18.75141 23347 ft 370 kts 292°
2026-05-04 11:37 50.21819 18.71445 23887 ft 374 kts 292°
2026-05-04 11:37 50.22828 18.67719 24435 ft 377 kts 292°
2026-05-04 11:38 50.23833 18.63927 24998 ft 379 kts 292°
2026-05-04 11:38 50.24834 18.60119 25532 ft 382 kts 291°
2026-05-04 11:38 50.25833 18.56312 26043 ft 385 kts 292°
2026-05-04 11:38 50.26852 18.52418 26555 ft 387 kts 291°
2026-05-04 11:39 50.27869 18.48527 27057 ft 390 kts 292°
2026-05-04 11:39 50.28898 18.44586 27553 ft 393 kts 292°
2026-05-04 11:40 50.35196 18.20459 30391 ft 408 kts 291°
2026-05-04 11:41 50.36253 18.16382 30828 ft 411 kts 291°
2026-05-04 11:41 50.37325 18.12245 31260 ft 413 kts 291°
2026-05-04 11:41 50.38403 18.08077 31682 ft 416 kts 291°
2026-05-04 11:41 50.39490 18.03865 32129 ft 418 kts 291°
2026-05-04 11:42 50.40576 17.99646 32656 ft 418 kts 290°
2026-05-04 11:42 50.41656 17.95444 33241 ft 416 kts 291°
2026-05-04 11:42 50.42717 17.91313 33829 ft 412 kts 291°
2026-05-04 11:42 50.43770 17.87200 33957 ft 411 kts 291°
2026-05-04 11:43 50.44852 17.82967 33996 ft 420 kts 291°
2026-05-04 11:43 50.46025 17.78741 34000 ft 431 kts 294°
2026-05-04 11:43 50.47272 17.74458 33995 ft 439 kts 294°
2026-05-04 11:44 50.49782 17.65755 33988 ft 437 kts 293°
2026-05-04 11:44 50.52267 17.57094 33986 ft 436 kts 293°
2026-05-04 11:45 50.54744 17.48427 33990 ft 435 kts 293°
2026-05-04 11:45 50.57208 17.39771 33982 ft 435 kts 293°
2026-05-04 11:46 50.59657 17.31139 33992 ft 435 kts 292°
2026-05-04 11:46 50.62113 17.22452 33990 ft 435 kts 292°
2026-05-04 11:47 50.64539 17.13840 33988 ft 435 kts 292°
2026-05-04 11:47 50.66982 17.05133 33980 ft 435 kts 292°
2026-05-04 11:48 50.69409 16.96453 33989 ft 435 kts 292°
2026-05-04 11:48 50.71790 16.87737 33982 ft 433 kts 291°
2026-05-04 11:49 50.74136 16.79055 33982 ft 433 kts 291°
2026-05-04 11:49 50.76477 16.70359 33979 ft 432 kts 291°
2026-05-04 11:50 50.78812 16.61654 33980 ft 432 kts 291°
2026-05-04 11:50 50.81147 16.52913 33983 ft 433 kts 291°
2026-05-04 11:51 50.83469 16.44193 33977 ft 433 kts 291°
2026-05-04 11:51 50.85792 16.35431 33974 ft 432 kts 291°
2026-05-04 11:52 50.88088 16.26739 33984 ft 431 kts 290°
2026-05-04 11:52 50.90393 16.17980 33985 ft 430 kts 290°
2026-05-04 11:53 50.92701 16.09318 33987 ft 429 kts 295°
2026-05-04 11:53 50.95900 16.01378 33990 ft 430 kts 301°
2026-05-04 11:55 51.09207 15.69777 33980 ft 432 kts 301°
2026-05-04 11:56 51.12314 15.61684 33980 ft 429 kts 291°
2026-05-04 11:56 51.13909 15.52633 33987 ft 425 kts 280°
2026-05-04 11:57 51.15061 15.43478 33978 ft 424 kts 280°
2026-05-04 11:57 51.16207 15.34324 33980 ft 423 kts 279°
2026-05-04 11:58 51.17346 15.25163 33981 ft 423 kts 279°
2026-05-04 11:58 51.18478 15.15998 33983 ft 423 kts 279°
2026-05-04 11:59 51.19599 15.06863 33982 ft 424 kts 279°
2026-05-04 11:59 51.20758 14.97639 33978 ft 424 kts 280°
2026-05-04 12:00 51.21973 14.88489 33980 ft 425 kts 280°
2026-05-04 12:00 51.23182 14.79307 33977 ft 424 kts 280°
2026-05-04 12:01 51.24382 14.70131 33974 ft 423 kts 280°
2026-05-04 12:02 51.28503 14.38144 33965 ft 422 kts 280°
2026-05-04 12:03 51.29662 14.29024 33973 ft 421 kts 279°
2026-05-04 12:03 51.30817 14.19863 33979 ft 421 kts 279°
2026-05-04 12:04 51.31956 14.10765 33976 ft 421 kts 279°
2026-05-04 12:04 51.33096 14.01605 33977 ft 421 kts 279°
2026-05-04 12:05 51.34227 13.92453 33974 ft 420 kts 279°
2026-05-04 12:05 51.35345 13.83347 33971 ft 421 kts 279°
2026-05-04 12:06 51.36465 13.74166 33968 ft 420 kts 278°
2026-05-04 12:06 51.37572 13.65022 33966 ft 421 kts 278°
2026-05-04 12:07 51.38668 13.55900 33961 ft 422 kts 278°
2026-05-04 12:07 51.39765 13.46720 33961 ft 422 kts 278°
2026-05-04 12:08 51.40855 13.37529 33959 ft 421 kts 278°
2026-05-04 12:08 51.41940 13.28310 33965 ft 421 kts 278°
2026-05-04 12:09 51.43010 13.19156 33969 ft 421 kts 277°
2026-05-04 12:09 51.44076 13.09970 33963 ft 420 kts 278°
2026-05-04 12:10 51.45136 13.00771 33966 ft 421 kts 277°
2026-05-04 12:10 51.46183 12.91616 33967 ft 420 kts 277°
2026-05-04 12:11 51.47230 12.82396 33961 ft 421 kts 277°
2026-05-04 12:11 51.48267 12.73194 33961 ft 421 kts 277°
2026-05-04 12:12 51.49297 12.63994 33964 ft 422 kts 277°
2026-05-04 12:12 51.50314 12.54837 33962 ft 420 kts 277°
2026-05-04 12:14 51.54334 12.17944 33967 ft 420 kts 276°
2026-05-04 12:15 51.55316 12.08758 33966 ft 420 kts 276°
2026-05-04 12:15 51.56293 11.99554 33968 ft 419 kts 276°
2026-05-04 12:16 51.57259 11.90373 33959 ft 419 kts 276°
2026-05-04 12:16 51.58220 11.81164 33961 ft 419 kts 276°
2026-05-04 12:17 51.59175 11.71950 33956 ft 419 kts 276°
2026-05-04 12:17 51.60123 11.62719 33957 ft 420 kts 276°
2026-05-04 12:18 51.61064 11.53494 33954 ft 420 kts 276°
2026-05-04 12:18 51.62000 11.44239 33947 ft 420 kts 276°
2026-05-04 12:19 51.62927 11.34993 33952 ft 419 kts 276°
2026-05-04 12:19 51.63843 11.25780 33956 ft 419 kts 275°
2026-05-04 12:20 51.64750 11.16585 33955 ft 418 kts 275°
2026-05-04 12:20 51.65656 11.07323 33954 ft 418 kts 275°
2026-05-04 12:21 51.66547 10.98138 33960 ft 418 kts 275°
2026-05-04 12:21 51.67445 10.88885 33957 ft 419 kts 277°
2026-05-04 12:22 51.68885 10.79844 33957 ft 421 kts 281°
2026-05-04 12:22 51.70316 10.70703 33958 ft 421 kts 280°
2026-05-04 12:23 51.71720 10.61613 33959 ft 420 kts 280°
2026-05-04 12:23 51.73123 10.52483 33961 ft 420 kts 280°
2026-05-04 12:24 51.74507 10.43420 33961 ft 419 kts 280°
2026-05-04 12:24 51.75893 10.34287 33960 ft 419 kts 279°
2026-05-04 12:25 51.77265 10.25199 33959 ft 419 kts 279°
2026-05-04 12:25 51.78635 10.16073 33958 ft 419 kts 279°
2026-05-04 12:26 51.79997 10.06946 33956 ft 419 kts 279°
2026-05-04 12:26 51.81349 9.97832 33955 ft 420 kts 279°
2026-05-04 12:27 51.82695 9.88706 33953 ft 420 kts 279°
2026-05-04 12:27 51.84033 9.79586 33956 ft 419 kts 279°
2026-05-04 12:28 51.85360 9.70484 33956 ft 419 kts 279°
2026-05-04 12:28 51.86685 9.61344 33957 ft 419 kts 279°
2026-05-04 12:29 51.87999 9.52219 33954 ft 418 kts 279°
2026-05-04 12:29 51.89304 9.43106 33953 ft 419 kts 279°
2026-05-04 12:30 51.90614 9.33910 33956 ft 418 kts 278°
2026-05-04 12:30 51.91898 9.24836 33961 ft 418 kts 278°
2026-05-04 12:31 51.93187 9.15671 33961 ft 417 kts 278°
2026-05-04 12:31 51.94464 9.06535 33960 ft 418 kts 278°
2026-05-04 12:32 51.96368 8.92805 33957 ft 418 kts 278°
2026-05-04 12:33 51.97629 8.83647 33955 ft 418 kts 278°
2026-05-04 12:33 51.98701 8.75818 33951 ft 417 kts 278°
2026-05-04 12:34 51.99901 8.66998 33953 ft 416 kts 278°
2026-05-04 12:34 52.01137 8.57856 33951 ft 416 kts 278°
2026-05-04 12:35 52.02370 8.48687 33955 ft 416 kts 278°
2026-05-04 12:35 52.03592 8.39534 33945 ft 415 kts 278°
2026-05-04 12:36 52.04800 8.30431 33956 ft 416 kts 277°
2026-05-04 12:36 52.06006 8.21285 33949 ft 414 kts 278°
2026-05-04 12:37 52.07196 8.12203 33953 ft 415 kts 278°
2026-05-04 12:37 52.08384 8.03083 33957 ft 411 kts 277°
2026-05-04 12:37 52.08962 7.98631 33942 ft 398 kts 277°
2026-05-04 12:38 52.09522 7.94295 33953 ft 394 kts 277°
2026-05-04 12:38 52.10648 7.85529 33955 ft 398 kts 277°
2026-05-04 12:39 52.11768 7.76762 33964 ft 397 kts 277°
2026-05-04 12:39 52.12880 7.67998 33962 ft 397 kts 277°
2026-05-04 12:40 52.13981 7.59277 33960 ft 394 kts 277°
2026-05-04 12:40 52.14517 7.55019 33915 ft 375 kts 277°
2026-05-04 12:40 52.15027 7.50957 33780 ft 359 kts 277°
2026-05-04 12:41 52.15997 7.43142 33721 ft 361 kts 276°
2026-05-04 12:41 52.16495 7.39063 33755 ft 372 kts 276°
2026-05-04 12:41 52.16976 7.34935 33940 ft 378 kts 275°
2026-05-04 12:41 52.17426 7.30719 34386 ft 378 kts 274°
2026-05-04 12:42 52.17825 7.26511 34943 ft 373 kts 273°
2026-05-04 12:42 52.18169 7.22398 35312 ft 361 kts 272°
2026-05-04 12:42 52.18457 7.18413 35024 ft 354 kts 271°
2026-05-04 12:42 52.18690 7.14446 33835 ft 368 kts 270°
2026-05-04 12:43 52.18872 7.10176 32364 ft 397 kts 268°
2026-05-04 12:43 52.18992 7.05695 31575 ft 400 kts 267°
2026-05-04 12:43 52.19044 7.01182 31803 ft 392 kts 265°
2026-05-04 12:43 52.19029 6.96816 31953 ft 398 kts 265°
2026-05-04 12:44 52.19150 6.92314 31359 ft 405 kts 272°
2026-05-04 12:44 52.19770 6.87812 30998 ft 415 kts 282°
2026-05-04 12:44 52.20898 6.83449 30493 ft 422 kts 292°
2026-05-04 12:44 52.22497 6.79448 29981 ft 427 kts 302°
2026-05-04 12:45 52.24520 6.75912 29324 ft 432 kts 312°
2026-05-04 12:45 52.26912 6.72975 28683 ft 435 kts 322°
2026-05-04 12:45 52.29629 6.70719 28021 ft 436 kts 333°
2026-05-04 12:45 52.32393 6.68985 27375 ft 431 kts 334°
2026-05-04 12:46 52.35164 6.67244 26721 ft 423 kts 331°
2026-05-04 12:46 52.37552 6.64697 26074 ft 402 kts 311°
2026-05-04 12:46 52.39468 6.61426 25457 ft 392 kts 306°
2026-05-04 12:46 52.41200 6.58113 24815 ft 387 kts 305°
2026-05-04 12:47 52.42900 6.54737 24152 ft 384 kts 304°
2026-05-04 12:47 52.44574 6.51365 23506 ft 380 kts 304°
2026-05-04 12:47 52.46141 6.47965 22866 ft 372 kts 294°
2026-05-04 12:47 52.46899 6.44028 22269 ft 359 kts 275°
2026-05-04 12:48 52.47170 6.39992 21666 ft 358 kts 273°
2026-05-04 12:48 52.47396 6.35937 21050 ft 358 kts 273°
2026-05-04 12:48 52.47606 6.31897 20431 ft 355 kts 272°
2026-05-04 12:48 52.47808 6.27909 19823 ft 354 kts 273°
2026-05-04 12:49 52.48006 6.23921 19202 ft 351 kts 273°
2026-05-04 12:49 52.48200 6.19967 18597 ft 349 kts 273°
2026-05-04 12:49 52.48394 6.15981 17980 ft 347 kts 274°
2026-05-04 12:49 52.48582 6.12107 17387 ft 345 kts 274°
2026-05-04 12:50 52.48769 6.08221 16782 ft 342 kts 274°
2026-05-04 12:50 52.48952 6.04383 16198 ft 339 kts 274°
2026-05-04 12:50 52.49136 6.00515 15556 ft 337 kts 273°
2026-05-04 12:50 52.49315 5.96720 14943 ft 335 kts 273°
2026-05-04 12:51 52.49491 5.92971 14323 ft 332 kts 273°
2026-05-04 12:51 52.49665 5.89235 13715 ft 330 kts 273°
2026-05-04 12:51 52.49839 5.85478 12839 ft 336 kts 273°
2026-05-04 12:51 52.50014 5.81675 12402 ft 327 kts 273°
2026-05-04 12:52 52.50180 5.78033 11974 ft 318 kts 273°
2026-05-04 12:52 52.50341 5.74492 11652 ft 308 kts 273°
2026-05-04 12:52 52.50495 5.71071 11314 ft 299 kts 273°
2026-05-04 12:52 52.50644 5.67735 10997 ft 291 kts 273°
2026-05-04 12:53 52.50790 5.64469 10655 ft 282 kts 273°
2026-05-04 12:53 52.50930 5.61284 10362 ft 277 kts 273°
2026-05-04 12:53 52.51064 5.58132 10064 ft 278 kts 270°
2026-05-04 12:53 52.50700 5.55060 9849 ft 274 kts 251°
2026-05-04 12:54 52.50077 5.52103 9891 ft 280 kts 251°
2026-05-04 12:54 52.49440 5.49107 9973 ft 280 kts 251°
2026-05-04 12:54 52.48798 5.46112 9980 ft 280 kts 250°
2026-05-04 12:54 52.48146 5.43083 9969 ft 280 kts 250°
2026-05-04 12:55 52.47306 5.40195 9345 ft 293 kts 230°
2026-05-04 12:55 52.45729 5.38165 8425 ft 294 kts 216°
2026-05-04 12:55 52.44241 5.35914 7546 ft 289 kts 231°
2026-05-04 12:55 52.43027 5.33327 6667 ft 287 kts 235°
2026-05-04 12:56 52.41935 5.30638 5983 ft 289 kts 237°
2026-05-04 12:56 52.40876 5.27847 5504 ft 282 kts 239°
2026-05-04 12:56 52.39910 5.25216 5166 ft 262 kts 239°
2026-05-04 12:56 52.39014 5.22741 4891 ft 244 kts 239°
2026-05-04 12:57 52.38177 5.20417 4667 ft 227 kts 239°
2026-05-04 12:57 52.37411 5.18284 4464 ft 210 kts 240°
2026-05-04 12:57 52.36699 5.16299 4198 ft 199 kts 240°
2026-05-04 12:57 52.36012 5.14384 4010 ft 192 kts 240°
2026-05-04 12:58 52.35344 5.12520 3780 ft 191 kts 240°
2026-05-04 12:58 52.34674 5.10655 3574 ft 192 kts 240°
2026-05-04 12:58 52.33991 5.08749 3369 ft 193 kts 240°
2026-05-04 12:58 52.33310 5.06855 3175 ft 191 kts 240°
2026-05-04 12:59 52.32741 5.04986 2931 ft 184 kts 261°
2026-05-04 12:59 52.32628 5.02961 2730 ft 176 kts 268°
2026-05-04 12:59 52.32556 5.00973 2498 ft 172 kts 268°
2026-05-04 12:59 52.32489 4.99056 2281 ft 169 kts 268°
2026-05-04 13:00 52.32423 4.97145 2104 ft 164 kts 268°
2026-05-04 13:00 52.32363 4.95360 1970 ft 156 kts 268°
2026-05-04 13:00 52.32304 4.93593 1964 ft 157 kts 268°
2026-05-04 13:00 52.32245 4.91803 1768 ft 160 kts 268°
2026-05-04 13:01 52.32185 4.90023 1509 ft 151 kts 268°
2026-05-04 13:01 52.32130 4.88365 1218 ft 143 kts 268°
2026-05-04 13:01 52.32085 4.86755 863 ft 140 kts 269°
2026-05-04 13:01 52.32037 4.85231 632 ft 132 kts 268°
2026-05-04 13:02 52.31977 4.83733 473 ft 131 kts 267°
2026-05-04 13:02 52.31915 4.82228 339 ft 134 kts 268°
2026-05-04 13:02 52.31866 4.80717 181 ft 132 kts 268°
2026-05-04 13:02 52.31818 4.79216 19 ft 131 kts 268°
2026-05-04 13:03 52.31774 4.77822 0 ft 124 kts 262°
2026-05-04 13:03 52.31805 4.76642 13 ft 3 kts 240°
2026-05-04 13:03 52.31811 4.76639 -5 ft 0 kts 225°